Find Starlink 2729

NORAD ID: 48430 Int'l Des: 2021-040 Owner: SPXS Country: US Constellation: starlink decayed
LEOCIRCULAR
Vis

Historical Track — 15. Mai 2024

3D-Globus wird geladen...

Über Starlink 2729

Beschreibung wird geladen...

Höhenverlauf

Loading altitude history...

Zweizeiliger Elementsatz

1 48430U 21040C 24136.28022189 .38371250 12815-4 11392-2 0 9992
2 48430 53.0675 224.9572 0026434 335.1791 76.6566 16.42022762168683
Epoch: 15. Mai 2024 • Age: 17328 hours

Aktueller Status

Position data unavailable
Startdatum 9. Mai 2021
Alter 4.9 years
Verglühungsdatum 15. Mai 2024
Typ internet

Technische Details

Klassifizierung Payload
Masse 260.00 kg
Trockenmasse 248.00 kg
Gesamtmasse 260.00 kg
Länge 0.20 m
Durchmesser 2.80 m
Spannweite 9.00 m
Form Box + pan
Hersteller SPXS
Bus-Typ Starlink
Phasenstatus Reentered
Besitzer/Staat SPXS/US

Most Searched